Weather in Durban

South Africa     29°48′49″S   30°55′35″E
temp.,
°C
wind,
m/s
gust,
m/s
humid.,
%
clouds,
%
prec.,
mm/h
press.,
hPa
HPBL,
m
24 january, sun
sun2423:00+23nw22850 0.0 100939
02:00+22nw23650 0.0 100736
05:00+24sw6137938 0.0 1010773
08:00+25ssw5117766 0.0 1013898
11:00+25ssw81169100 0.0 10151081
14:00+25s9126892 0.0 10141140
17:00+23ssw10158463 0.2 1017969
20:00+21s9148882 3.6 1019958
25 january, mon
mon2523:00+21ssw71183100 1.1 1021862
02:00+19sw4883100 1.6 1020517
05:00+19sw3586100 1.1 1021423
08:00+20ssw3683100 2.2 1021534
11:00+22sse3469100 0.2 10201013
14:00+22ese3473100 0.3 1018772
17:00+22e2373100 0.1 1017707
20:00+21nnw1177100 0.1 1017225
26 january, tue
tue2623:00+20nw2382100 0.0 1017106
02:00+20nw228094 0.0 101365
05:00+21n2375100 0.0 101397
08:00+25ne357181 0.0 1012273
11:00+28ene556390 0.0 1011531
14:00+31e445979 0.0 1008504
17:00+29ene247119 0.0 1007315
20:00+26ssw228359 0.0 100959
27 january, wed
wed2723:00+26w1279100 0.1 101132
02:00+24wsw1279100 0.1 100939
05:00+23ssw1283100 0.6 1009151
08:00+25s128193 1.6 1009324
11:00+27ese437552 0.9 1007579
14:00+26sse557867 1.1 1005583
17:00+24s71190100 0.8 1006622
20:00+23ssw61192100 1.9 1009699
28 january, thu
thu2823:00+21sw71490100 1.7 1013798
02:00+21ssw71392100 5.8 1013789
05:00+20sw61284100 1.9 1015828
08:00+19wsw3590100 3.2 1018380
11:00+20w2588100 1.4 1019391
14:00+21sw4787100 1.8 1018609
17:00+21ssw4685100 0.1 1016435
20:00+20sw358291 0.1 1017263